Regional Weather Roundup
Issued by NWS

Current Version | Previous Version | Text Only | Print | Product List | Glossary On
Versions: 1 2 3 4 5 6 7 8 9 10 11 12 13 14 15 16 17 18 19 20 21 22 23 24 25 26 27 28 29 30 31 32 33 34 35 36 37 38 39 40 41 42 43 44 45 46 47 48 49 50
000
ASUS45 KSLC 300710
RWRUT

UTAH REGIONAL WEATHER ROUNDUP
NATIONAL WEATHER SERVICE SALT LAKE CITY UT
100 AM MDT MON MAR 30 2015

UTZ001>011-023>025-300800-

NORTHERN UTAH

CITY           SKY/WX    TMP DP  RH WIND       PRES   REMARKS
BRIGHAM CITY   CLEAR     43  29  59 CALM      30.21S
HILL AFB       NOT AVBL
LOGAN          CLEAR     37  26  64 CALM      30.22S
OGDEN          CLEAR     45  18  34 SE3       30.20R
PROVO AIRPORT  CLEAR     45  28  53 CALM      30.21S
SALT LAKE CITY CLEAR     48  26  42 N3        30.19S
VERNAL         CLEAR     43  20  39 W7        30.19S
WENDOVER       CLEAR     45  16  31 S3        30.20R
HEBER CITY     CLEAR     32  21  64 E3        30.26S
WEST JORDAN    CLEAR     43  25  49 CALM      30.20S

$$

UTZ012>022-026-027-300800-

SOUTHERN/CENTRAL UTAH

CITY           SKY/WX    TMP DP  RH WIND       PRES   REMARKS
BLANDING       PTCLDY    51  15  23 CALM      30.27S
BRYCE CANYON   PTCLDY    34  25  69 W9        30.32S WCI  27
CEDAR CITY     CLEAR     44  23  43 NE5       30.20R
DELTA          CLEAR     44  18  35 N8        30.18R
HANKSVILLE     PTCLDY    45  12  26 CALM      30.16S
MILFORD        CLEAR     42  18  37 SW3       30.19R
MOAB/CYNLANDS  CLEAR     50   5  16 CALM      30.13S
PRICE          CLEAR     43  10  26 VRB5      30.21S
ST GEORGE      SUNNY     63  25  23 E8        30.09R
KANAB          PTCLDY    43  27  52 CALM      30.22R

$$

REGIONAL REPORTS     COLORADO/ARIZONA

CITY           SKY/WX    TMP DP  RH WIND       PRES   REMARKS
CRAIG, CO      CLEAR     31  22  69 NE3       30.25R
GRAND JUNCTION CLEAR     41  12  30 E6        30.15S
RIFLE          CLEAR     44  15  31 CALM      30.22R
MONTROSE       CLEAR     49  16  26 SE12      30.23S
CORTEZ         CLEAR     37  16  42 NE7       30.24R WCI  32
PAGE, AZ       MOCLDY    64  24  21 W5        30.12R
GRAND CANYON   PTCLDY    37  23  56 CALM      30.28S
KINGMAN        PTCLDY    53  23  31 CALM      30.10R
FLAGSTAFF      PTCLDY    39  20  46 CALM      30.31S

$$

REGIONAL REPORTS    NEVADA/IDAHO/WYOMING

CITY           SKY/WX    TMP DP  RH WIND       PRES   REMARKS
LAS VEGAS, NV  PTCLDY    73  20  13 S9        29.97S
ELY            CLEAR     35  12  38 VRB3      30.24R
ELKO           CLEAR     36  13  38 CALM      30.21R
POCATELLO, ID  CLEAR     43  16  33 CALM      30.20S
BURLEY         CLEAR     40  23  50 SW5       30.19S
EVANSTON, WY   CLEAR     40  15  36 S3        30.28S
ROCK SPRINGS   CLEAR     39  12  33 SW13      30.25R WCI  31
KEMMERER       CLEAR     37  12  35 CALM      30.28S

$$



USA.gov is the U.S. government's official web portal to all federal, state and local government web resources and services.